EN

Hourly Weather Sverdly

Today, 30 October, Friday

Time Temperature Precipitation Wind Pressure Humidity
00:00 +10°C° 0.4 mm 2 mps 744 mmHg 95%
01:00 +10°C° 0.4 mm 2 mps 744 mmHg 95%
02:00 +9°C° 0 mm 2 mps 744 mmHg 95%
03:00 +10°C° 0.1 mm 1 mps 744 mmHg 95%
04:00 +10°C° 0.1 mm 1 mps 744 mmHg 95%
05:00 +10°C° 0.1 mm 1 mps 744 mmHg 96%
06:00 +10°C° 0 mm 1 mps 744 mmHg 95%
07:00 +10°C° 0 mm 1 mps 744 mmHg 95%
08:00 +9°C° 0 mm 2 mps 745 mmHg 94%
09:00 +9°C° 0 mm 2 mps 745 mmHg 92%
10:00 +9°C° 0 mm 2 mps 745 mmHg 90%
11:00 +10°C° 0 mm 2 mps 745 mmHg 88%
12:00 +10°C° 0.1 mm 2 mps 745 mmHg 87%
13:00 +10°C° 0.1 mm 2 mps 745 mmHg 86%
14:00 +10°C° 0.1 mm 2 mps 745 mmHg 85%
15:00 +9°C° 0.2 mm 2 mps 745 mmHg 87%
16:00 +9°C° 0.2 mm 2 mps 745 mmHg 89%
17:00 +9°C° 0.2 mm 2 mps 745 mmHg 91%
18:00 +8°C° 0.4 mm 2 mps 745 mmHg 92%
19:00 +8°C° 0.4 mm 2 mps 746 mmHg 92%
20:00 +8°C° 0.4 mm 2 mps 746 mmHg 93%
21:00 +8°C° 0.6 mm 2 mps 746 mmHg 93%
22:00 +8°C° 0.6 mm 2 mps 746 mmHg 93%
23:00 +8°C° 0.6 mm 2 mps 746 mmHg 93%

Tomorrow, 31 October, Saturday

Time Temperature Precipitation Wind Pressure Humidity
00:00 +8°C° 0.5 mm 2 mps 746 mmHg 93%
01:00 +8°C° 0.5 mm 2 mps 747 mmHg 93%
02:00 +8°C° 0.5 mm 2 mps 747 mmHg 93%
03:00 +8°C° 0.7 mm 2 mps 747 mmHg 94%
04:00 +8°C° 0.7 mm 2 mps 747 mmHg 94%
05:00 +8°C° 0.7 mm 3 mps 748 mmHg 94%
06:00 +8°C° 0.5 mm 2 mps 748 mmHg 95%
07:00 +8°C° 0.5 mm 2 mps 749 mmHg 95%
08:00 +8°C° 0.5 mm 2 mps 749 mmHg 95%
09:00 +9°C° 0.1 mm 2 mps 750 mmHg 93%
10:00 +9°C° 0.1 mm 3 mps 750 mmHg 91%
11:00 +10°C° 0.1 mm 3 mps 751 mmHg 89%
12:00 +10°C° 0.1 mm 3 mps 751 mmHg 87%
13:00 +10°C° 0.1 mm 3 mps 751 mmHg 85%
14:00 +10°C° 0.1 mm 3 mps 751 mmHg 83%
15:00 +10°C° 0 mm 3 mps 752 mmHg 85%
16:00 +9°C° 0 mm 2 mps 752 mmHg 88%
17:00 +9°C° 0 mm 2 mps 752 mmHg 90%
18:00 +9°C° 0 mm 2 mps 753 mmHg 90%
19:00 +9°C° 0 mm 2 mps 753 mmHg 91%
20:00 +9°C° 0 mm 3 mps 753 mmHg 91%
21:00 +8°C° 0 mm 3 mps 754 mmHg 91%
22:00 +8°C° 0 mm 3 mps 754 mmHg 91%
23:00 +8°C° 0 mm 3 mps 754 mmHg 91%

Day after tomorrow, 1 November, Sunday

Time Temperature Precipitation Wind Pressure Humidity
00:00 +8°C° 0 mm 2 mps 754 mmHg 92%
01:00 +8°C° 0 mm 2 mps 754 mmHg 92%
02:00 +8°C° 0 mm 2 mps 754 mmHg 92%
03:00 +7°C° 0 mm 2 mps 754 mmHg 93%
04:00 +7°C° 0 mm 2 mps 754 mmHg 94%
05:00 +6°C° 0 mm 2 mps 754 mmHg 95%
06:00 +6°C° 0 mm 2 mps 754 mmHg 95%
07:00 +6°C° 0 mm 2 mps 754 mmHg 95%
08:00 +5°C° 0 mm 2 mps 754 mmHg 95%
09:00 +6°C° 0 mm 2 mps 754 mmHg 90%
10:00 +7°C° 0 mm 2 mps 754 mmHg 85%
11:00 +9°C° 0 mm 2 mps 754 mmHg 81%
12:00 +9°C° 0 mm 2 mps 753 mmHg 77%
13:00 +9°C° 0 mm 2 mps 753 mmHg 73%
14:00 +10°C° 0 mm 2 mps 752 mmHg 69%
15:00 +9°C° 0 mm 2 mps 752 mmHg 74%
16:00 +7°C° 0 mm 2 mps 752 mmHg 79%
17:00 +6°C° 0 mm 2 mps 752 mmHg 84%
18:00 +6°C° 0 mm 2 mps 751 mmHg 87%
19:00 +5°C° 0 mm 2 mps 751 mmHg 89%
20:00 +4°C° 0 mm 2 mps 751 mmHg 92%
21:00 +4°C° 0 mm 2 mps 751 mmHg 93%
22:00 +4°C° 0 mm 2 mps 750 mmHg 94%
23:00 +3°C° 0 mm 2 mps 750 mmHg 94%

2 November, Monday

Time Temperature Precipitation Wind Pressure Humidity
00:00 +3°C° 0 mm 2 mps 750 mmHg 94%
01:00 +3°C° 0 mm 2 mps 750 mmHg 94%
02:00 +2°C° 0 mm 2 mps 750 mmHg 93%
03:00 +2°C° 0 mm 2 mps 749 mmHg 93%
04:00 +2°C° 0 mm 2 mps 749 mmHg 92%
05:00 +2°C° 0 mm 2 mps 749 mmHg 92%
06:00 +2°C° 0 mm 2 mps 749 mmHg 92%
07:00 +2°C° 0 mm 2 mps 749 mmHg 91%
08:00 +2°C° 0 mm 2 mps 749 mmHg 91%
09:00 +3°C° 0 mm 2 mps 749 mmHg 87%
10:00 +4°C° 0 mm 2 mps 749 mmHg 83%
11:00 +5°C° 0 mm 2 mps 749 mmHg 79%
12:00 +5°C° 0 mm 3 mps 748 mmHg 78%
13:00 +7°C° 0 mm 3 mps 748 mmHg 78%
14:00 +7°C° 0 mm 3 mps 748 mmHg 77%
15:00 +7°C° 0 mm 3 mps 748 mmHg 81%
16:00 +5°C° 0 mm 3 mps 748 mmHg 86%
17:00 +4°C° 0 mm 3 mps 748 mmHg 90%
18:00 +4°C° 0 mm 3 mps 748 mmHg 91%
19:00 +4°C° 0 mm 3 mps 748 mmHg 91%
20:00 +4°C° 0 mm 4 mps 748 mmHg 92%
21:00 +4°C° 0 mm 4 mps 748 mmHg 92%
22:00 +4°C° 0 mm 4 mps 748 mmHg 92%
23:00 +4°C° 0 mm 4 mps 748 mmHg 91%

3 November, Tuesday

Time Temperature Precipitation Wind Pressure Humidity
00:00 +4°C° 0 mm 4 mps 748 mmHg 91%
01:00 +4°C° 0 mm 4 mps 748 mmHg 90%
02:00 +4°C° 0 mm 4 mps 748 mmHg 90%
03:00 +3°C° 0 mm 5 mps 748 mmHg 90%
04:00 +5°C° 0 mm 5 mps 748 mmHg 89%
05:00 +5°C° 0 mm 5 mps 748 mmHg 89%
06:00 +5°C° 0 mm 5 mps 748 mmHg 88%
07:00 +5°C° 0 mm 5 mps 748 mmHg 87%
08:00 +4°C° 0 mm 6 mps 748 mmHg 86%
09:00 +5°C° 0 mm 6 mps 748 mmHg 83%
10:00 +7°C° 0 mm 6 mps 748 mmHg 80%
11:00 +8°C° 0 mm 6 mps 748 mmHg 77%
12:00 +8°C° 0.2 mm 6 mps 748 mmHg 78%
13:00 +8°C° 0.2 mm 5 mps 748 mmHg 80%
14:00 +7°C° 0.2 mm 5 mps 748 mmHg 82%
15:00 +7°C° 0.5 mm 5 mps 748 mmHg 85%
16:00 +7°C° 0.5 mm 5 mps 748 mmHg 89%
17:00 +7°C° 0.5 mm 4 mps 749 mmHg 92%
18:00 +7°C° 0.2 mm 4 mps 749 mmHg 93%
19:00 +7°C° 0.2 mm 4 mps 749 mmHg 94%
20:00 +8°C° 0.2 mm 3 mps 750 mmHg 95%
21:00 +8°C° 0.2 mm 3 mps 750 mmHg 95%
22:00 +8°C° 0.2 mm 3 mps 751 mmHg 96%
23:00 +8°C° 0.2 mm 2 mps 751 mmHg 96%

4 November, Wednesday

Time Temperature Precipitation Wind Pressure Humidity
00:00 +8°C° 0 mm 2 mps 752 mmHg 94%
01:00 +8°C° 0 mm 2 mps 752 mmHg 92%
02:00 +7°C° 0 mm 2 mps 752 mmHg 91%
03:00 +7°C° 0 mm 2 mps 753 mmHg 91%
04:00 +6°C° 0 mm 2 mps 753 mmHg 91%
05:00 +5°C° 0 mm 2 mps 753 mmHg 91%
06:00 +6°C° 0 mm 1 mps 753 mmHg 91%
07:00 +6°C° 0 mm 1 mps 754 mmHg 91%
08:00 +6°C° 0 mm 1 mps 754 mmHg 91%
09:00 +7°C° 0 mm 1 mps 755 mmHg 87%
10:00 +8°C° 0 mm 1 mps 755 mmHg 83%
11:00 +9°C° 0 mm 1 mps 755 mmHg 78%
12:00 +9°C° 0 mm 1 mps 755 mmHg 77%
13:00 +9°C° 0 mm 2 mps 755 mmHg 76%
14:00 +9°C° 0 mm 2 mps 756 mmHg 74%
15:00 +8°C° 0 mm 2 mps 756 mmHg 78%
16:00 +8°C° 0 mm 2 mps 756 mmHg 82%
17:00 +8°C° 0 mm 1 mps 756 mmHg 86%
18:00 +7°C° 0 mm 2 mps 756 mmHg 87%
19:00 +6°C° 0 mm 2 mps 756 mmHg 87%
20:00 +6°C° 0 mm 2 mps 757 mmHg 88%
21:00 +6°C° 0 mm 2 mps 757 mmHg 88%
22:00 +6°C° 0 mm 2 mps 757 mmHg 88%
23:00 +6°C° 0 mm 2 mps 757 mmHg 88%
Show more

We Need Your Consent

Meteoprog and our Service Providers may store and access personal data such as cookies, device identifiers or other similar technologies on your device and process such data to personalise content and ads, as well as provide social media features and to analyse the traffic.

  • Store and/or access information on your device

    Cookies, device identifiers or other information can be stored or accessed on your device for the purposes indicated above.

  • Personalised ads and content, ad and content measurement, audience insights, and products development

    Ads and content can be personalised based on a profile. More data can be added to better personalise ads and content. Ad and content performance can be measured. Insights about the audience who saw the ads and content can be derived. Such data can be used to develop or improve user’s experience, systems and software.

By clicking ‘I Agree’ you will allow the use of indicated cookies, device identifiers, web beacons or other similar technologies. Your settings can be changed in the browser on your device.

For certain purposes, legitimate interests may be relied on, rather than consent. You can read more about this in our Privacy and Cookie Policy.